Tracking 18850 objects as of 22-Nov-2017
HD Live streaming from Space Station
objects crossing your sky now

BIRD JJ

Track BIRD JJ now!
10-day predictions
BIRD JJ is classified as:


NORAD ID: 42820
Int'l Code: 1998-067MU
Perigee: 392.5 km
Apogee: 397.8 km
Inclination: 51.6 °
Period: 92.3 minutes
Semi major axis: 6766 km
RCS: Unknown
Launch date: November 20, 1998
Source: Japan (JPN)
Launch site: TYURATAM MISSILE AND SPACE COMPLEX (TTMTR)
Uplink (MHz):
Downlink (MHz): 437.375
Beacon (MHz): 437.372
Mode: 1k2AFSK 9k6GMSK CW
Call sign: JG6YJO
Status: Active

aabbcc
Your satellite tracking list
Your tracking list is empty




NASA's NSSDC Master Catalog

Two Line Element Set (TLE):
1 42820U 98067MU  17325.45119622  .00025756  00000-0  31916-3 0  9992
2 42820  51.6379 331.4120 0003871  86.1016 274.0420 15.59876051 21351
Source of the keplerian elements: AFSPC